User: anonymous   Login
Location: Newark
(48.5156°N, 1.8989°W)
Time: 05:46:47
(UTC+00:00)
Language:

deb Explorer IX - Orbit

View from above orbital plane
View from above orbital plane
View from above satellite
View from above satellite

Ground track
Ground track

The orbit data is extracted from the following two-line orbital elements,

1    85U 61004C   19324.48653841 +.00001425 +00000-0 +32856-3 0  9991
2    85 038.7719 011.4984 0388167 180.7140 179.3085 14.19960397901238
Epoch (UTC): 20 November 2019 11:40:36
Eccentricity: 0.0388167
inclination: 38.7719°
perigee height: 546 km
apogee height: 1105 km
right ascension of ascending node: 11.4984°
argument of perigee: 180.7140°
revolutions per day: 14.19960397
mean anomaly at epoch: 179.3085°
orbit number at epoch: 90123

The dashed part of the orbit path shows where the satellite is in the earth's shadow,  

DLR